| time (UTC) | temp F | wind direction | speed knots | gust knots | rain 1hr in | rain 24hr in | rain mn in | humidity % | barometer mb |
| 20260507213017 | 51 | 72 | 1.7 | 2.6 | 0.00 | 0.00 | 0.00 | 86 | 1017.7 |
| 20260507212017 | 51 | 112 | 1.7 | 3.5 | 0.00 | 0.00 | 0.00 | 86 | 1017.7 |
| 20260507211018 | 51 | 64 | 1.7 | 3.5 | 0.00 | 0.00 | 0.00 | 85 | 1017.8 |
| 20260507210017 | 51 | 114 | 2.6 | 4.3 | 0.00 | 0.00 | 0.00 | 85 | 1017.7 |
| 20260507205018 | 51 | 74 | 1.7 | 2.6 | 0.00 | 0.00 | 0.00 | 84 | 1017.7 |
| 20260507204018 | 51 | 91 | 2.6 | 4.3 | 0.00 | 0.00 | 0.00 | 84 | 1017.6 |
| 20260507203038 | 52 | 81 | 1.7 | 5.2 | 0.00 | 0.00 | 0.00 | 83 | 1017.5 |
| 20260507202018 | 52 | 69 | 0.9 | 2.6 | 0.00 | 0.00 | 0.00 | 82 | 1017.4 |
| 20260507201018 | 52 | 80 | 1.7 | 3.5 | 0.00 | 0.00 | 0.00 | 81 | 1017.3 |
| 20260507200018 | 52 | 77 | 2.6 | 6.1 | 0.00 | 0.00 | 0.00 | 81 | 1017.1 |
| 20260507195018 | 53 | 74 | 3.5 | 5.2 | 0.00 | 0.00 | 0.00 | 80 | 1017.0 |
| 20260507194019 | 53 | 103 | 1.7 | 3.5 | 0.00 | 0.00 | 0.00 | 80 | 1016.9 |
| 20260507193019 | 53 | 42 | 0.0 | 1.7 | 0.00 | 0.00 | 0.00 | 79 | 1016.9 |
| 20260507192019 | 54 | 57 | 1.7 | 3.5 | 0.00 | 0.00 | 0.00 | 79 | 1016.9 |
| 20260507191019 | 54 | 65 | 0.9 | 3.5 | 0.00 | 0.00 | 0.00 | 78 | 1016.9 |
| 20260507190019 | 54 | 83 | 2.6 | 7.0 | 0.00 | 0.00 | 0.00 | 78 | 1016.9 |
| 20260507185019 | 54 | 71 | 1.7 | 3.5 | 0.00 | 0.00 | 0.00 | 77 | 1016.9 |
| 20260507184019 | 55 | 64 | 1.7 | 3.5 | 0.00 | 0.00 | 0.00 | 77 | 1016.9 |
| 20260507183019 | 55 | 93 | 3.5 | 6.1 | 0.00 | 0.00 | 0.00 | 76 | 1016.9 |
| 20260507182040 | 56 | 230 | 0.9 | 2.6 | 0.00 | 0.00 | 0.00 | 75 | 1016.8 |
| 20260507181039 | 56 | 147 | 0.0 | 0.9 | 0.00 | 0.00 | 0.00 | 75 | 1016.8 |
| 20260507180020 | 56 | 162 | 3.5 | 8.7 | 0.00 | 0.00 | 0.00 | 74 | 1016.7 |
| 20260507175020 | 56 | 195 | 1.7 | 4.3 | 0.00 | 0.00 | 0.00 | 75 | 1016.8 |
| 20260507174020 | 56 | 187 | 3.5 | 8.7 | 0.00 | 0.00 | 0.00 | 74 | 1016.8 |
| 20260507173020 | 56 | 146 | 4.3 | 6.1 | 0.00 | 0.00 | 0.00 | 74 | 1016.8 |
| 20260507172041 | 56 | 170 | 2.6 | 7.0 | 0.00 | 0.00 | 0.00 | 74 | 1016.9 |
| 20260507171021 | 56 | 191 | 2.6 | 8.7 | 0.00 | 0.00 | 0.00 | 74 | 1016.8 |
| 20260507170021 | 57 | 88 | 2.6 | 5.2 | 0.00 | 0.00 | 0.00 | 74 | 1016.8 |
| 20260507165021 | 57 | 160 | 4.3 | 7.8 | 0.00 | 0.00 | 0.00 | 74 | 1016.8 |
| 20260507164041 | 56 | 174 | 1.7 | 7.0 | 0.00 | 0.00 | 0.00 | 75 | 1016.8 |
| 20260507163021 | 57 | 180 | 2.6 | 7.8 | 0.00 | 0.00 | 0.00 | 73 | 1016.8 |
| 20260507162020 | 56 | 173 | 2.6 | 7.0 | 0.00 | 0.00 | 0.00 | 74 | 1016.8 |
| 20260507161041 | 57 | 188 | 3.5 | 7.8 | 0.00 | 0.00 | 0.00 | 74 | 1016.9 |
| 20260507160021 | 57 | 179 | 3.5 | 7.8 | 0.00 | 0.00 | 0.00 | 73 | 1016.9 |
| 20260507155041 | 57 | 149 | 2.6 | 6.1 | 0.00 | 0.00 | 0.00 | 73 | 1016.9 |
| 20260507154021 | 57 | 165 | 4.3 | 10.4 | 0.00 | 0.00 | 0.00 | 74 | 1017.0 |
| 20260507153021 | 58 | 185 | 4.3 | 12.2 | 0.00 | 0.00 | 0.00 | 72 | 1017.0 |
| 20260507152042 | 57 | 159 | 2.6 | 11.3 | 0.00 | 0.00 | 0.00 | 72 | 1017.1 |
| 20260507151021 | 57 | 218 | 1.7 | 7.0 | 0.00 | 0.00 | 0.00 | 72 | 1017.1 |
| 20260507150022 | 57 | 177 | 3.5 | 6.1 | 0.00 | 0.00 | 0.00 | 73 | 1017.1 |
| 20260507145042 | 57 | 175 | 4.3 | 10.4 | 0.00 | 0.00 | 0.00 | 74 | 1017.1 |
| 20260507144022 | 57 | 177 | 4.3 | 9.6 | 0.00 | 0.00 | 0.00 | 73 | 1017.1 |
| 20260507143022 | 57 | 153 | 2.6 | 7.0 | 0.00 | 0.00 | 0.00 | 72 | 1017.1 |
| 20260507142022 | 58 | 180 | 5.2 | 8.7 | 0.00 | 0.00 | 0.00 | 71 | 1017.2 |
| 20260507141016 | 58 | 175 | 6.1 | 11.3 | 0.00 | 0.00 | 0.00 | 71 | 1017.3 |
| 20260507140036 | 58 | 158 | 3.5 | 5.2 | 0.00 | 0.00 | 0.00 | 71 | 1017.3 |
| 20260507135017 | 58 | 171 | 4.3 | 8.7 | 0.00 | 0.00 | 0.00 | 72 | 1017.4 |
| 20260507134017 | 58 | 191 | 5.2 | 11.3 | 0.00 | 0.00 | 0.00 | 72 | 1017.4 |
| 20260507133023 | 58 | 210 | 6.1 | 11.3 | 0.00 | 0.00 | 0.00 | 71 | 1017.4 |
| 20260507132023 | 58 | 178 | 3.5 | 6.1 | 0.00 | 0.00 | 0.00 | 71 | 1017.3 |
| 20260507131017 | 58 | 184 | 5.2 | 10.4 | 0.00 | 0.00 | 0.00 | 71 | 1017.4 |
| 20260507130017 | 58 | 161 | 5.2 | 13.0 | 0.00 | 0.00 | 0.00 | 72 | 1017.4 |
| 20260507125037 | 58 | 184 | 3.5 | 9.6 | 0.00 | 0.00 | 0.00 | 72 | 1017.4 |
| 20260507124017 | 58 | 180 | 4.3 | 9.6 | 0.00 | 0.00 | 0.00 | 72 | 1017.4 |
| 20260507123018 | 58 | 180 | 3.5 | 9.6 | 0.00 | 0.00 | 0.00 | 72 | 1017.3 |
| 20260507122017 | 58 | 153 | 5.2 | 12.2 | 0.00 | 0.00 | 0.00 | 72 | 1017.4 |
| 20260507121018 | 58 | 178 | 5.2 | 13.0 | 0.00 | 0.00 | 0.00 | 73 | 1017.5 |
| 20260507120039 | 57 | 180 | 5.2 | 11.3 | 0.00 | 0.00 | 0.00 | 73 | 1017.5 |
| 20260507115018 | 56 | 177 | 6.1 | 14.8 | 0.00 | 0.00 | 0.00 | 74 | 1017.5 |
| 20260507114058 | 57 | 136 | 3.5 | 9.6 | 0.00 | 0.00 | 0.00 | 73 | 1017.5 |
| 20260507113018 | 57 | 165 | 3.5 | 9.6 | 0.00 | 0.00 | 0.00 | 74 | 1017.4 |
| 20260507112039 | 56 | 111 | 4.3 | 8.7 | 0.00 | 0.00 | 0.00 | 75 | 1017.4 |
| 20260507111058 | 56 | 181 | 4.3 | 9.6 | 0.00 | 0.00 | 0.00 | 75 | 1017.5 |
| 20260507110039 | 56 | 172 | 4.3 | 8.7 | 0.00 | 0.00 | 0.00 | 75 | 1017.6 |
| 20260507105019 | 56 | 173 | 3.5 | 7.0 | 0.00 | 0.00 | 0.00 | 76 | 1017.6 |
| 20260507104019 | 56 | 179 | 3.5 | 7.8 | 0.00 | 0.00 | 0.00 | 76 | 1017.7 |
| 20260507103019 | 55 | 173 | 3.5 | 9.6 | 0.00 | 0.00 | 0.00 | 77 | 1017.8 |
| 20260507102025 | 55 | 101 | 2.6 | 4.3 | 0.00 | 0.00 | 0.00 | 76 | 1017.8 |
| 20260507101019 | 55 | 141 | 4.3 | 7.0 | 0.00 | 0.00 | 0.00 | 76 | 1017.8 |
| 20260507100039 | 55 | 147 | 4.3 | 9.6 | 0.00 | 0.00 | 0.00 | 75 | 1017.8 |
| 20260507095019 | 55 | 155 | 4.3 | 9.6 | 0.00 | 0.00 | 0.00 | 76 | 1017.7 |
| 20260507094019 | 55 | 168 | 3.5 | 7.0 | 0.00 | 0.00 | 0.00 | 76 | 1017.7 |
| 20260507093020 | 55 | 185 | 5.2 | 9.6 | 0.00 | 0.00 | 0.00 | 75 | 1017.7 |
| 20260507092026 | 55 | 200 | 5.2 | 7.8 | 0.00 | 0.00 | 0.00 | 76 | 1017.6 |
| 20260507091026 | 55 | 199 | 3.5 | 7.8 | 0.00 | 0.00 | 0.00 | 76 | 1017.5 |
| 20260507090026 | 54 | 140 | 1.7 | 4.3 | 0.00 | 0.00 | 0.00 | 76 | 1017.5 |
| 20260507085020 | 55 | 171 | 6.1 | 9.6 | 0.00 | 0.00 | 0.00 | 74 | 1017.5 |
| 20260507084026 | 55 | 19 | 2.6 | 3.5 | 0.00 | 0.00 | 0.00 | 73 | 1017.4 |
| 20260507083026 | 55 | 56 | 0.9 | 3.5 | 0.00 | 0.00 | 0.00 | 73 | 1017.4 |
| 20260507082026 | 55 | 127 | 0.9 | 3.5 | 0.00 | 0.00 | 0.00 | 73 | 1017.3 |
| 20260507081027 | 55 | 47 | 3.5 | 4.3 | 0.00 | 0.00 | 0.00 | 75 | 1017.3 |
| 20260507080046 | 54 | 350 | 1.7 | 4.3 | 0.00 | 0.00 | 0.00 | 76 | 1017.2 |
| 20260507075027 | 53 | 59 | 2.6 | 5.2 | 0.00 | 0.00 | 0.00 | 78 | 1017.2 |
| 20260507074027 | 53 | 74 | 1.7 | 3.5 | 0.00 | 0.00 | 0.00 | 79 | 1017.2 |
| 20260507073027 | 52 | 73 | 2.6 | 7.0 | 0.00 | 0.00 | 0.00 | 80 | 1017.1 |
| 20260507072027 | 52 | 73 | 1.7 | 4.3 | 0.00 | 0.00 | 0.00 | 81 | 1017.1 |
| 20260507071027 | 52 | 95 | 0.9 | 2.6 | 0.00 | 0.00 | 0.00 | 83 | 1017.0 |
| 20260507070028 | 51 | 87 | 1.7 | 3.5 | 0.00 | 0.00 | 0.00 | 84 | 1017.0 |
| 20260507065108 | 51 | 88 | 2.6 | 7.8 | 0.00 | 0.00 | 0.00 | 85 | 1017.0 |
| 20260507064027 | 50 | 12 | 1.7 | 2.6 | 0.00 | 0.00 | 0.00 | 85 | 1017.0 |
| 20260507063027 | 50 | 71 | 0.9 | 2.6 | 0.00 | 0.00 | 0.00 | 86 | 1017.0 |
| 20260507062028 | 50 | 64 | 1.7 | 3.5 | 0.00 | 0.00 | 0.00 | 86 | 1016.9 |
| 20260507061028 | 49 | 75 | 0.9 | 3.5 | 0.00 | 0.00 | 0.00 | 87 | 1016.8 |
| 20260507060028 | 49 | 78 | 1.7 | 5.2 | 0.00 | 0.00 | 0.00 | 87 | 1016.7 |
| 20260507055048 | 49 | 72 | 3.5 | 7.8 | 0.00 | 0.00 | 0.00 | 88 | 1016.7 |
| 20260507054028 | 49 | 218 | 0.0 | 0.0 | 0.00 | 0.00 | 0.00 | 88 | 1016.6 |
| 20260507053029 | 49 | 51 | 1.7 | 4.3 | 0.00 | 0.00 | 0.00 | 88 | 1016.4 |
| 20260507052108 | 49 | 58 | 2.6 | 6.1 | 0.00 | 0.00 | 0.00 | 88 | 1016.5 |
| 20260507051029 | 49 | 89 | 0.9 | 4.3 | 0.00 | 0.00 | 0.00 | 88 | 1016.5 |
| 20260507050029 | 49 | 247 | 0.9 | 2.6 | 0.00 | 0.00 | 0.00 | 88 | 1016.5 |
| 20260507045029 | 49 | 63 | 0.0 | 0.9 | 0.00 | 0.00 | 0.00 | 88 | 1016.4 |
| 20260507044029 | 49 | 16 | 0.9 | 3.5 | 0.00 | 0.00 | 0.00 | 88 | 1016.4 |
| 20260507043029 | 49 | 355 | 0.0 | 2.6 | 0.00 | 0.00 | 0.00 | 88 | 1016.2 |
| 20260507042029 | 49 | 57 | 0.9 | 2.6 | 0.00 | 0.00 | 0.00 | 87 | 1016.2 |
| 20260507041029 | 49 | 22 | 1.7 | 2.6 | 0.00 | 0.00 | 0.00 | 87 | 1016.2 |
| 20260507040050 | 49 | 54 | 0.0 | 0.9 | 0.00 | 0.00 | 0.00 | 87 | 1016.1 |
| 20260507035030 | 49 | 59 | 2.6 | 5.2 | 0.00 | 0.00 | 0.00 | 87 | 1016.1 |
| 20260507034030 | 49 | 70 | 0.9 | 3.5 | 0.00 | 0.00 | 0.00 | 87 | 1016.1 |
| 20260507033030 | 49 | 34 | 1.7 | 2.6 | 0.00 | 0.00 | 0.00 | 87 | 1016.0 |
| 20260507032031 | 49 | 0.0 | 0.0 | 0.00 | 0.00 | 0.00 | 87 | 1016.0 | |
| 20260507031050 | 49 | 109 | 0.0 | 1.7 | 0.00 | 0.00 | 0.00 | 87 | 1016.0 |
| 20260507030030 | 49 | 144 | 0.9 | 1.7 | 0.00 | 0.00 | 0.00 | 87 | 1016.0 |
| 20260507025030 | 49 | 41 | 0.9 | 3.5 | 0.00 | 0.00 | 0.00 | 87 | 1016.0 |
| 20260507024016 | 49 | 98 | 0.9 | 1.7 | 0.00 | 0.00 | 0.00 | 87 | 1015.9 |
| 20260507023016 | 49 | 65 | 0.9 | 3.5 | 0.00 | 0.00 | 0.00 | 87 | 1015.9 |
| 20260507022031 | 49 | 17 | 0.9 | 3.5 | 0.00 | 0.00 | 0.00 | 87 | 1015.8 |
| 20260507021031 | 49 | 3 | 0.0 | 2.6 | 0.00 | 0.00 | 0.00 | 87 | 1015.8 |
| 20260507020051 | 49 | 0.0 | 0.0 | 0.00 | 0.00 | 0.00 | 86 | 1015.7 | |
| 20260507015031 | 49 | 26 | 0.9 | 2.6 | 0.00 | 0.00 | 0.00 | 86 | 1015.7 |
| 20260507014051 | 49 | 349 | 0.9 | 4.3 | 0.00 | 0.00 | 0.00 | 86 | 1015.7 |
| 20260507013036 | 49 | 0.0 | 0.0 | 0.00 | 0.00 | 0.00 | 86 | 1015.8 | |
| 20260507012017 | 50 | 60 | 0.0 | 0.9 | 0.00 | 0.00 | 0.00 | 85 | 1015.8 |
| 20260507011017 | 50 | 70 | 0.0 | 0.9 | 0.00 | 0.00 | 0.00 | 85 | 1015.8 |
| 20260507010017 | 50 | 38 | 0.0 | 1.7 | 0.00 | 0.00 | 0.00 | 85 | 1015.8 |
| 20260507005017 | 50 | 40 | 0.0 | 1.7 | 0.00 | 0.00 | 0.00 | 85 | 1015.7 |
| 20260507004017 | 50 | 75 | 0.9 | 3.5 | 0.00 | 0.00 | 0.00 | 84 | 1015.7 |
| 20260507003017 | 50 | 44 | 0.9 | 1.7 | 0.00 | 0.00 | 0.00 | 84 | 1015.8 |
| 20260507002017 | 50 | 7 | 0.0 | 0.0 | 0.00 | 0.00 | 0.00 | 83 | 1015.9 |
| 20260507001032 | 50 | 102 | 0.0 | 0.9 | 0.00 | 0.00 | 0.00 | 83 | 1015.9 |
| 20260507000018 | 50 | 4 | 0.0 | 0.9 | 0.00 | 0.00 | 0.00 | 83 | 1015.9 |
| 20260506235018 | 51 | 349 | 0.9 | 2.6 | 0.00 | 0.00 | 0.00 | 83 | 1015.9 |
| 20260506234038 | 51 | 87 | 0.0 | 0.0 | 0.00 | 0.00 | 0.00 | 82 | 1015.8 |
| 20260506233018 | 51 | 19 | 0.9 | 2.6 | 0.00 | 0.00 | 0.00 | 81 | 1015.8 |
| 20260506232019 | 51 | 340 | 0.0 | 0.9 | 0.00 | 0.00 | 0.00 | 81 | 1015.8 |
| 20260506231019 | 51 | 4 | 1.7 | 2.6 | 0.00 | 0.00 | 0.00 | 81 | 1015.8 |
| 20260506230018 | 51 | 16 | 0.9 | 1.7 | 0.00 | 0.00 | 0.00 | 80 | 1015.8 |
| 20260506225019 | 51 | 68 | 0.0 | 0.9 | 0.00 | 0.00 | 0.00 | 80 | 1015.7 |
| 20260506224019 | 51 | 14 | 0.9 | 1.7 | 0.00 | 0.00 | 0.00 | 80 | 1015.7 |
| 20260506223019 | 51 | 32 | 0.0 | 2.6 | 0.00 | 0.00 | 0.00 | 80 | 1015.7 |
| 20260506222019 | 52 | 61 | 0.9 | 1.7 | 0.00 | 0.00 | 0.00 | 80 | 1015.7 |
| 20260506221019 | 52 | 47 | 0.9 | 2.6 | 0.00 | 0.00 | 0.00 | 80 | 1015.7 |
| 20260506220019 | 52 | 37 | 0.9 | 2.6 | 0.00 | 0.00 | 0.00 | 79 | 1015.6 |
| 20260506215019 | 52 | 79 | 0.9 | 2.6 | 0.00 | 0.00 | 0.00 | 79 | 1015.6 |
| 20260506214040 | 52 | 48 | 0.9 | 2.6 | 0.00 | 0.00 | 0.00 | 79 | 1015.6 |